Location: Rounton
(54.4000°N, 1.3500°W)
Time: 01:18:04
(UTC+00:00)

Altair - Pass Details

Date: 30 November 2021
Orbit: 1501 x 1683 km, 47.2° (Epoch: 19 January)

Event Time Altitude Azimuth Distance (km) Brightness Sun altitude
Rises 19:01:37 0° 254° (WSW) 4,707 11.2 -27.3°
Reaches altitude 10° 19:04:46 10° 250° (WSW) 3,704 10.4 -27.7°
Maximum altitude 19:13:44 56° 176° (S) 1,751 7.6 -29.0°
Enters shadow 19:15:45 48° 136° (SE) 1,898 7.6 -29.3°
